Weather History for Jonesville, VA

Change the Weather History Date:

Saturday, December 28, 2013

  Actual Average (KLOZ) Record (KLOZ)
Temperature  
Mean Temperature 30 °F 36 °F  
Max Temperature 42 °F 45 °F 72 °F (1984)
Min Temperature 17 °F 27 °F 7 °F (1977)
Degree Days  
Heating Degree Days 36 29  
Month to date heating degree days 735  
Since 1 July heating degree days 1565  
Cooling Degree Days 0 0  
Month to date cooling degree days 0  
Year to date cooling degree days 1190  
Moisture  
Dew Point 27 °F    
Average Humidity 85    
Maximum Humidity 100    
Minimum Humidity 57    
Precipitation  
Precipitation 0.26 in 0.12 in 1.64 in (1966)
Month to date precipitation 3.88  
Year to date precipitation 46.78  
Sea Level Pressure  
Sea Level Pressure 30.31 in    
Wind  
Wind Speed 0 mph (North)    
Max Wind Speed 0 mph    
Max Gust Speed -    
Visibility 9 miles    
Events Rain    
T = Trace of Precipitation, MM = Missing Value Source: NWS Daily Summary

Daily Weather History Graph

Daily Weather History Graph

Search for Another Location

Airport:

Trip Planner

Search our weather history database for the weather conditions in past years. The results will help you decide how hot, cold, wet, or windy it might be!

Date:

Astronomy

Dec. 28, 2013 Rise Set
Actual Time 7:44 AM EST 5:24 PM EST
Civil Twilight 7:15 AM EST 5:53 PM EST
Nautical Twilight 6:43 AM EST 6:26 PM EST
Astronomical Twilight 6:11 AM EST 6:57 PM EST
Moon 3:23 AM EST (12/28) 2:12 PM EST (12/28)
Length of Visible Light 10h 38m
Length of Day
9h 40m
Waning Crescent, 19% of the Moon is Illuminated
Dec 28
Waning Crescent
Jan 1
New
Jan 7
First Quarter
Jan 15
Full
Jan 24
Last Quarter

Hourly Weather History & Observations

Time (EST) Temp. Dew Point Humidity Pressure Visibility Wind Dir Wind Speed Gust Speed Precip Events Conditions
12:15 AM 23.0 °F 21.2 °F 93% 30.42 in 10.0 mi Calm Calm - N/A   Clear
12:35 AM 23.0 °F 21.2 °F 93% 30.42 in 10.0 mi Calm Calm - N/A   Clear
12:55 AM 21.2 °F 19.4 °F 93% 30.41 in 10.0 mi Calm Calm - N/A   Clear
1:15 AM 23.0 °F 19.4 °F 86% 30.41 in 10.0 mi Calm Calm - N/A   Clear
1:35 AM 19.4 °F 19.4 °F 100% 30.41 in 10.0 mi Calm Calm - N/A   Clear
1:55 AM 21.2 °F 19.4 °F 93% 30.40 in 10.0 mi Calm Calm - N/A   Clear
2:15 AM 21.2 °F 19.4 °F 93% 30.40 in 10.0 mi Calm Calm - N/A   Clear
2:35 AM 19.4 °F 17.6 °F 93% 30.40 in 10.0 mi Calm Calm - N/A   Clear
2:55 AM 21.2 °F 19.4 °F 93% 30.40 in 10.0 mi Calm Calm - N/A   Clear
3:15 AM 19.4 °F 17.6 °F 93% 30.40 in 10.0 mi Calm Calm - N/A   Clear
3:35 AM 19.4 °F 19.4 °F 100% 30.40 in 10.0 mi Calm Calm - N/A   Clear
3:55 AM 19.4 °F 17.6 °F 93% 30.39 in 10.0 mi Calm Calm - N/A   Clear
4:15 AM 19.4 °F 17.6 °F 93% 30.39 in 10.0 mi Calm Calm - N/A   Clear
4:35 AM 19.4 °F 17.6 °F 93% 30.40 in 10.0 mi Calm Calm - N/A   Clear
4:55 AM 19.4 °F 17.6 °F 93% 30.40 in 10.0 mi Calm Calm - N/A   Clear
5:15 AM 17.6 °F 17.6 °F 100% 30.41 in 10.0 mi Calm Calm - N/A   Clear
5:35 AM 19.4 °F 17.6 °F 93% 30.41 in 10.0 mi Calm Calm - N/A   Clear
5:55 AM 19.4 °F 17.6 °F 93% 30.41 in 10.0 mi Calm Calm - N/A   Clear
6:15 AM 19.4 °F 17.6 °F 93% 30.40 in 10.0 mi Calm Calm - N/A   Clear
6:35 AM 17.6 °F 17.6 °F 100% 30.40 in 10.0 mi Calm Calm - N/A   Clear
6:55 AM 19.4 °F 17.6 °F 93% 30.40 in 10.0 mi Calm Calm - N/A   Clear
7:15 AM 17.6 °F 15.8 °F 93% 30.40 in 10.0 mi Calm Calm - N/A   Clear
7:35 AM 17.6 °F 17.6 °F 100% 30.40 in 10.0 mi Calm Calm - N/A   Clear
7:55 AM 17.6 °F 15.8 °F 93% 30.40 in 10.0 mi Calm Calm - N/A   Clear
8:15 AM 19.4 °F 17.6 °F 93% 30.39 in 10.0 mi Calm Calm - N/A   Clear
8:35 AM 21.2 °F 19.4 °F 93% 30.39 in 10.0 mi Calm Calm - N/A   Clear
8:55 AM 21.2 °F 19.4 °F 93% 30.39 in 10.0 mi Calm Calm - N/A   Clear
9:15 AM 24.8 °F 21.2 °F 86% 30.40 in 10.0 mi Calm Calm - N/A   Clear
9:35 AM 26.6 °F 23.0 °F 86% 30.39 in 10.0 mi Calm Calm - N/A   Clear
9:55 AM 26.6 °F 24.8 °F 93% 30.39 in 10.0 mi Calm Calm - N/A   Clear
10:15 AM 30.2 °F 24.8 °F 80% 30.39 in 10.0 mi Calm Calm - N/A   Clear
10:35 AM 32.0 °F 26.6 °F 80% 30.39 in 10.0 mi Calm Calm - N/A   Clear
10:55 AM 32.0 °F 26.6 °F 80% 30.38 in 10.0 mi Calm Calm - N/A   Clear
11:15 AM 33.8 °F 26.6 °F 75% 30.37 in 10.0 mi Calm Calm - N/A   Clear
11:35 AM 35.6 °F 28.4 °F 75% 30.36 in 10.0 mi Calm Calm - N/A   Clear
11:55 AM 37.4 °F 28.4 °F 70% 30.35 in 10.0 mi Calm Calm - N/A   Clear
12:15 PM 39.2 °F 28.4 °F 65% 30.33 in 10.0 mi Calm Calm - N/A   Clear
12:35 PM 41.0 °F 28.4 °F 61% 30.33 in 10.0 mi Calm Calm - N/A   Clear
12:55 PM 41.0 °F 28.4 °F 61% 30.32 in 10.0 mi Calm Calm - N/A   Clear
1:15 PM 41.0 °F 28.4 °F 61% 30.30 in 10.0 mi Calm Calm - N/A   Clear
1:35 PM 41.0 °F 28.4 °F 61% 30.30 in 10.0 mi Calm Calm - N/A   Clear
1:55 PM 41.0 °F 30.2 °F 65% 30.30 in 10.0 mi Calm Calm - N/A   Clear
2:15 PM 41.0 °F 28.4 °F 61% 30.29 in 10.0 mi Calm Calm - N/A   Clear
2:35 PM 42.8 °F 28.4 °F 57% 30.28 in 10.0 mi Calm Calm - N/A   Clear
2:55 PM 42.8 °F 28.4 °F 57% 30.28 in 10.0 mi Calm Calm - N/A   Clear
3:15 PM 42.8 °F 28.4 °F 57% 30.28 in 10.0 mi Calm Calm - N/A   Clear
3:35 PM 42.8 °F 28.4 °F 57% 30.27 in 10.0 mi Calm Calm - N/A   Clear
3:55 PM 42.8 °F 28.4 °F 57% 30.27 in 10.0 mi Calm Calm - N/A   Clear
4:15 PM 42.8 °F 30.2 °F 61% 30.28 in 10.0 mi Calm Calm - N/A   Clear
4:35 PM 41.0 °F 32.0 °F 70% 30.27 in 10.0 mi Calm Calm - N/A   Clear
4:55 PM 41.0 °F 32.0 °F 70% 30.26 in 10.0 mi Calm Calm - N/A   Clear
5:15 PM 41.0 °F 32.0 °F 70% 30.25 in 10.0 mi Calm Calm - N/A   Mostly Cloudy
5:35 PM 39.2 °F 32.0 °F 75% 30.24 in 10.0 mi Calm Calm - N/A   Overcast
5:55 PM 39.2 °F 32.0 °F 75% 30.23 in 10.0 mi Calm Calm - N/A Rain Light Rain
6:15 PM 39.2 °F 32.0 °F 75% 30.23 in 10.0 mi Calm Calm - N/A   Overcast
6:35 PM 39.2 °F 32.0 °F 75% 30.22 in 10.0 mi Calm Calm - N/A Rain Light Rain
6:55 PM 37.4 °F 35.6 °F 93% 30.20 in 10.0 mi Calm Calm - 0.01 in Rain Light Rain
7:15 PM 37.4 °F 35.6 °F 93% 30.18 in 10.0 mi Calm Calm - N/A Rain Light Rain
7:35 PM 37.4 °F 35.6 °F 93% 30.18 in 9.0 mi Calm Calm - 0.01 in Rain Light Rain
7:55 PM 37.4 °F 35.6 °F 93% 30.17 in 9.0 mi Calm Calm - 0.01 in Rain Light Rain
8:15 PM 37.4 °F 37.4 °F 100% 30.17 in 4.0 mi Calm Calm - N/A Rain Light Rain
8:35 PM 37.4 °F 37.4 °F 100% 30.17 in 4.0 mi Calm Calm - 0.02 in Rain Light Rain
8:55 PM 37.4 °F 37.4 °F 100% 30.16 in 3.0 mi Calm Calm - 0.04 in Rain Light Rain
9:15 PM 37.4 °F 37.4 °F 100% 30.16 in 3.0 mi Calm Calm - N/A Rain Light Rain
9:35 PM 37.4 °F 37.4 °F 100% 30.14 in 3.0 mi Calm Calm - 0.02 in Rain Light Rain
9:55 PM 37.4 °F 37.4 °F 100% 30.13 in 5.0 mi Calm Calm - 0.03 in Rain Light Rain
10:15 PM 37.4 °F 37.4 °F 100% 30.12 in 6.0 mi Calm Calm - N/A Rain Light Rain
10:35 PM 37.4 °F 37.4 °F 100% 30.11 in 3.0 mi Calm Calm - 0.02 in Rain Light Rain
10:55 PM 37.4 °F 37.4 °F 100% 30.11 in 2.5 mi Calm Calm - 0.07 in Rain Light Rain
11:15 PM 37.4 °F 37.4 °F 100% 30.10 in 2.0 mi Calm Calm - 0.02 in Rain Light Rain
11:35 PM 39.2 °F 39.2 °F 100% 30.08 in 2.5 mi Calm Calm - 0.06 in Rain Light Rain
11:55 PM 41.0 °F 41.0 °F 100% 30.06 in 4.0 mi Calm Calm - 0.10 in Rain Rain